| time (UTC) | temp F | wind direction | speed MPH | gust MPH | rain 1hr in | rain 24hr in | rain mn in | humidity % | barometer mb |
| 20260902230508 | 60 | 254 | 9.0 | 11.0 | 0.00 | 0.00 | 0.00 | 78 | 1022.1 |
| 20260902230008 | 60 | 250 | 10.0 | 10.0 | 0.00 | 0.00 | 0.00 | 77 | 1022.2 |
| 20260902225509 | 61 | 252 | 9.0 | 10.0 | 0.00 | 0.00 | 0.00 | 75 | 1022.4 |
| 20260902225008 | 61 | 251 | 11.0 | 11.0 | 0.00 | 0.00 | 0.00 | 74 | 1022.1 |
| 20260902224508 | 62 | 245 | 9.0 | 10.0 | 0.00 | 0.00 | 0.00 | 74 | 1022.3 |
| 20260902224007 | 62 | 240 | 9.0 | 10.0 | 0.00 | 0.00 | 0.00 | 73 | 1022.1 |
| 20260902223508 | 62 | 245 | 9.0 | 10.0 | 0.00 | 0.00 | 0.00 | 72 | 1022.2 |
| 20260902223007 | 63 | 231 | 9.0 | 10.0 | 0.00 | 0.00 | 0.00 | 71 | 1022.5 |
| 20260902222508 | 62 | 237 | 10.0 | 11.0 | 0.00 | 0.00 | 0.00 | 70 | 1022.2 |
| 20260902222007 | 62 | 247 | 10.0 | 10.0 | 0.00 | 0.00 | 0.00 | 70 | 1022.2 |
| 20260902221508 | 63 | 241 | 11.0 | 11.0 | 0.00 | 0.00 | 0.00 | 69 | 1022.2 |
| 20260902221007 | 63 | 249 | 8.0 | 9.0 | 0.00 | 0.00 | 0.00 | 68 | 1022.2 |
| 20260902220508 | 62 | 246 | 8.0 | 9.0 | 0.00 | 0.00 | 0.00 | 69 | 1022.4 |
| 20260902220009 | 62 | 243 | 9.0 | 10.0 | 0.00 | 0.00 | 0.00 | 69 | 1022.2 |
| 20260902215508 | 63 | 239 | 10.0 | 11.0 | 0.00 | 0.00 | 0.00 | 68 | 1022.2 |
| 20260902215008 | 63 | 239 | 9.0 | 10.0 | 0.00 | 0.00 | 0.00 | 67 | 1022.1 |
| 20260902214506 | 63 | 234 | 10.0 | 10.0 | 0.00 | 0.00 | 0.00 | 66 | 1022.2 |
| 20260902214008 | 63 | 230 | 9.0 | 9.0 | 0.00 | 0.00 | 0.00 | 66 | 1022.3 |
| 20260902213507 | 63 | 243 | 9.0 | 9.0 | 0.00 | 0.00 | 0.00 | 67 | 1022.3 |
| 20260902213008 | 62 | 249 | 9.0 | 10.0 | 0.00 | 0.00 | 0.00 | 72 | 1022.2 |
| 20260902212507 | 62 | 251 | 10.0 | 11.0 | 0.00 | 0.00 | 0.00 | 72 | 1022.2 |
| 20260902212007 | 63 | 248 | 9.0 | 10.0 | 0.00 | 0.00 | 0.00 | 68 | 1022.4 |
| 20260902211508 | 64 | 246 | 8.0 | 9.0 | 0.00 | 0.00 | 0.00 | 65 | 1022.2 |
| 20260902211008 | 65 | 262 | 8.0 | 9.0 | 0.00 | 0.00 | 0.00 | 62 | 1022.1 |
| 20260902210507 | 65 | 263 | 9.0 | 9.0 | 0.00 | 0.00 | 0.00 | 62 | 1022.1 |
| 20260902210007 | 64 | 260 | 7.0 | 8.0 | 0.00 | 0.00 | 0.00 | 65 | 1022.0 |
| 20260902205508 | 63 | 256 | 10.0 | 10.0 | 0.00 | 0.00 | 0.00 | 68 | 1022.1 |
| 20260902205008 | 63 | 265 | 8.0 | 9.0 | 0.00 | 0.00 | 0.00 | 67 | 1022.2 |
| 20260902204507 | 64 | 256 | 10.0 | 11.0 | 0.00 | 0.00 | 0.00 | 67 | 1022.4 |
| 20260902204008 | 63 | 250 | 10.0 | 10.0 | 0.00 | 0.00 | 0.00 | 67 | 1022.2 |
| 20260902203509 | 63 | 259 | 11.0 | 12.0 | 0.00 | 0.00 | 0.00 | 69 | 1022.3 |
| 20260902203008 | 63 | 239 | 12.0 | 15.0 | 0.00 | 0.00 | 0.00 | 70 | 1022.3 |
| 20260902202507 | 62 | 249 | 17.0 | 19.0 | 0.00 | 0.00 | 0.00 | 70 | 1022.2 |
| 20260902202007 | 62 | 223 | 9.0 | 16.0 | 0.00 | 0.00 | 0.00 | 72 | 1022.2 |
| 20260902201507 | 64 | 249 | 10.0 | 12.0 | 0.00 | 0.00 | 0.00 | 67 | 1022.1 |
| 20260902201007 | 65 | 250 | 9.0 | 9.0 | 0.00 | 0.00 | 0.00 | 63 | 1022.0 |
| 20260902200508 | 65 | 258 | 5.0 | 5.0 | 0.00 | 0.00 | 0.00 | 61 | 1021.8 |
| 20260902200008 | 66 | 264 | 3.0 | 4.0 | 0.00 | 0.00 | 0.00 | 61 | 1022.0 |
| 20260902195508 | 65 | 262 | 4.0 | 4.0 | 0.00 | 0.00 | 0.00 | 61 | 1021.8 |
| 20260902195007 | 66 | 269 | 6.0 | 6.0 | 0.00 | 0.00 | 0.00 | 60 | 1021.9 |
| 20260902194509 | 66 | 271 | 7.0 | 7.0 | 0.00 | 0.00 | 0.00 | 60 | 1022.0 |
| 20260902194008 | 66 | 269 | 8.0 | 8.0 | 0.00 | 0.00 | 0.00 | 58 | 1021.8 |
| 20260902193508 | 66 | 274 | 6.0 | 6.0 | 0.00 | 0.00 | 0.00 | 58 | 1021.8 |
| 20260902193007 | 65 | 267 | 5.0 | 5.0 | 0.00 | 0.00 | 0.00 | 63 | 1022.0 |
| 20260902192507 | 64 | 300 | 8.0 | 10.0 | 0.00 | 0.00 | 0.00 | 65 | 1022.0 |
| 20260902192008 | 63 | 286 | 12.0 | 12.0 | 0.00 | 0.00 | 0.00 | 69 | 1022.0 |
| 20260902191509 | 63 | 334 | 9.0 | 13.0 | 0.00 | 0.00 | 0.00 | 70 | 1022.0 |
| 20260902191006 | 67 | 288 | 6.0 | 6.0 | 0.00 | 0.00 | 0.00 | 53 | 1021.5 |
| 20260902190507 | 69 | 269 | 9.0 | 10.0 | 0.00 | 0.00 | 0.00 | 49 | 1021.7 |
| 20260902190007 | 69 | 264 | 7.0 | 8.0 | 0.00 | 0.00 | 0.00 | 49 | 1021.7 |
| 20260902185507 | 69 | 251 | 7.0 | 8.0 | 0.00 | 0.00 | 0.00 | 49 | 1021.8 |
| 20260902185008 | 68 | 232 | 7.0 | 8.0 | 0.00 | 0.00 | 0.00 | 49 | 1021.7 |
| 20260902184508 | 68 | 237 | 10.0 | 12.0 | 0.00 | 0.00 | 0.00 | 52 | 1021.8 |
| 20260902184007 | 66 | 243 | 8.0 | 10.0 | 0.00 | 0.00 | 0.00 | 58 | 1021.6 |
| 20260902183508 | 64 | 245 | 16.0 | 19.0 | 0.00 | 0.00 | 0.00 | 63 | 1021.9 |
| 20260902183007 | 63 | 223 | 17.0 | 21.0 | 0.00 | 0.00 | 0.00 | 70 | 1021.8 |
| 20260902182507 | 63 | 260 | 23.0 | 25.0 | 0.00 | 0.00 | 0.00 | 72 | 1022.1 |
| 20260902182007 | 65 | 267 | 16.0 | 22.0 | 0.00 | 0.00 | 0.00 | 68 | 1022.0 |
| 20260902181507 | 67 | 251 | 13.0 | 23.0 | 0.00 | 0.00 | 0.00 | 59 | 1021.6 |
| 20260902181008 | 68 | 248 | 12.0 | 21.0 | 0.00 | 0.00 | 0.00 | 55 | 1021.7 |
| 20260902180508 | 70 | 253 | 11.0 | 15.0 | 0.00 | 0.00 | 0.00 | 48 | 1021.5 |
| 20260902180008 | 70 | 240 | 7.0 | 10.0 | 0.00 | 0.00 | 0.00 | 48 | 1021.3 |
| 20260902175508 | 70 | 243 | 8.0 | 13.0 | 0.00 | 0.00 | 0.00 | 48 | 1021.3 |
| 20260902175008 | 70 | 240 | 5.0 | 8.0 | 0.00 | 0.00 | 0.00 | 48 | 1021.3 |
| 20260902174507 | 70 | 245 | 10.0 | 13.0 | 0.00 | 0.00 | 0.00 | 47 | 1021.3 |
| 20260902174008 | 70 | 243 | 7.0 | 8.0 | 0.00 | 0.00 | 0.00 | 47 | 1021.2 |
| 20260902173508 | 71 | 241 | 9.0 | 12.0 | 0.00 | 0.00 | 0.00 | 47 | 1021.5 |
| 20260902173008 | 71 | 242 | 6.0 | 8.0 | 0.00 | 0.00 | 0.00 | 48 | 1021.4 |
| 20260902172507 | 71 | 235 | 7.0 | 9.0 | 0.00 | 0.00 | 0.00 | 48 | 1021.3 |
| 20260902172007 | 71 | 235 | 5.0 | 7.0 | 0.00 | 0.00 | 0.00 | 47 | 1021.3 |
| 20260902171507 | 71 | 241 | 7.0 | 7.0 | 0.00 | 0.00 | 0.00 | 47 | 1021.2 |
| 20260902171008 | 71 | 245 | 4.0 | 4.0 | 0.00 | 0.00 | 0.00 | 47 | 1021.3 |
| 20260902170507 | 71 | 221 | 7.0 | 9.0 | 0.00 | 0.00 | 0.00 | 47 | 1021.4 |
| 20260902170008 | 71 | 240 | 6.0 | 8.0 | 0.00 | 0.00 | 0.00 | 47 | 1021.3 |
| 20260902165508 | 71 | 256 | 6.0 | 10.0 | 0.00 | 0.00 | 0.00 | 46 | 1021.4 |
| 20260902165007 | 71 | 248 | 5.0 | 6.0 | 0.00 | 0.00 | 0.00 | 46 | 1021.3 |
| 20260902164508 | 71 | 254 | 6.0 | 7.0 | 0.00 | 0.00 | 0.00 | 47 | 1021.5 |
| 20260902164007 | 71 | 236 | 8.0 | 9.0 | 0.00 | 0.00 | 0.00 | 46 | 1021.4 |
| 20260902163508 | 71 | 225 | 8.0 | 8.0 | 0.00 | 0.00 | 0.00 | 46 | 1021.5 |
| 20260902163008 | 71 | 250 | 8.0 | 9.0 | 0.00 | 0.00 | 0.00 | 47 | 1021.6 |
| 20260902162507 | 71 | 273 | 3.0 | 4.0 | 0.00 | 0.00 | 0.00 | 48 | 1021.4 |
| 20260902162008 | 72 | 248 | 2.0 | 3.0 | 0.00 | 0.00 | 0.00 | 47 | 1021.6 |
| 20260902161508 | 72 | 289 | 3.0 | 3.0 | 0.00 | 0.00 | 0.00 | 46 | 1021.5 |
| 20260902161007 | 72 | 145 | 5.0 | 5.0 | 0.00 | 0.00 | 0.00 | 45 | 1021.7 |
| 20260902160507 | 73 | 291 | 0.0 | 2.0 | 0.00 | 0.00 | 0.00 | 46 | 1021.6 |
| 20260902160009 | 72 | 247 | 4.0 | 5.0 | 0.00 | 0.00 | 0.00 | 46 | 1021.7 |
| 20260902155507 | 73 | 273 | 4.0 | 4.0 | 0.00 | 0.00 | 0.00 | 46 | 1021.8 |
| 20260902155007 | 73 | 256 | 5.0 | 6.0 | 0.00 | 0.00 | 0.00 | 44 | 1021.5 |
| 20260902154507 | 74 | 225 | 1.0 | 2.0 | 0.00 | 0.00 | 0.00 | 46 | 1021.7 |
| 20260902154008 | 73 | 248 | 8.0 | 8.0 | 0.00 | 0.00 | 0.00 | 45 | 1021.7 |
| 20260902153508 | 73 | 229 | 8.0 | 10.0 | 0.00 | 0.00 | 0.00 | 46 | 1021.7 |
| 20260902153007 | 74 | 265 | 2.0 | 3.0 | 0.00 | 0.00 | 0.00 | 43 | 1021.8 |
| 20260902152508 | 72 | 311 | 2.0 | 3.0 | 0.00 | 0.00 | 0.00 | 46 | 1021.8 |
| 20260902152007 | 72 | 283 | 4.0 | 6.0 | 0.00 | 0.00 | 0.00 | 49 | 1021.9 |
| 20260902151508 | 73 | 259 | 3.0 | 4.0 | 0.00 | 0.00 | 0.00 | 45 | 1022.0 |
| 20260902151009 | 74 | 255 | 7.0 | 10.0 | 0.00 | 0.00 | 0.00 | 45 | 1022.1 |
| 20260902150507 | 72 | 269 | 7.0 | 7.0 | 0.00 | 0.00 | 0.00 | 44 | 1022.1 |
| 20260902150008 | 71 | 285 | 4.0 | 5.0 | 0.00 | 0.00 | 0.00 | 46 | 1022.1 |
| 20260902145507 | 71 | 287 | 8.0 | 8.0 | 0.00 | 0.00 | 0.00 | 46 | 1022.2 |
| 20260902145007 | 71 | 258 | 5.0 | 6.0 | 0.00 | 0.00 | 0.00 | 46 | 1022.1 |
| 20260902144507 | 71 | 263 | 6.0 | 10.0 | 0.00 | 0.00 | 0.00 | 46 | 1022.2 |
| 20260902144007 | 72 | 280 | 4.0 | 5.0 | 0.00 | 0.00 | 0.00 | 47 | 1022.2 |
| 20260902143508 | 73 | 284 | 7.0 | 8.0 | 0.00 | 0.00 | 0.00 | 44 | 1022.3 |
| 20260902143007 | 73 | 268 | 9.0 | 10.0 | 0.00 | 0.00 | 0.00 | 43 | 1022.4 |
| 20260902142508 | 72 | 295 | 8.0 | 10.0 | 0.00 | 0.00 | 0.00 | 45 | 1022.4 |
| 20260902142008 | 72 | 268 | 4.0 | 4.0 | 0.00 | 0.00 | 0.00 | 46 | 1022.3 |
| 20260902141507 | 73 | 299 | 2.0 | 2.0 | 0.00 | 0.00 | 0.00 | 44 | 1022.1 |
| 20260902141009 | 74 | 264 | 0.0 | 2.0 | 0.00 | 0.00 | 0.00 | 43 | 1022.4 |
| 20260902140508 | 72 | 254 | 3.0 | 5.0 | 0.00 | 0.00 | 0.00 | 45 | 1022.6 |
| 20260902140008 | 72 | 294 | 3.0 | 3.0 | 0.00 | 0.00 | 0.00 | 46 | 1022.5 |
| 20260902135508 | 72 | 245 | 10.0 | 11.0 | 0.00 | 0.00 | 0.00 | 45 | 1022.7 |
| 20260902135008 | 73 | 246 | 3.0 | 5.0 | 0.00 | 0.00 | 0.00 | 43 | 1022.6 |
| 20260902134508 | 73 | 255 | 4.0 | 5.0 | 0.00 | 0.00 | 0.00 | 44 | 1022.7 |
| 20260902134008 | 72 | 271 | 9.0 | 12.0 | 0.00 | 0.00 | 0.00 | 46 | 1022.7 |
| 20260902133508 | 72 | 255 | 9.0 | 11.0 | 0.00 | 0.00 | 0.00 | 44 | 1022.7 |
| 20260902133007 | 72 | 212 | 8.0 | 12.0 | 0.00 | 0.00 | 0.00 | 44 | 1022.6 |
| 20260902132507 | 73 | 259 | 11.0 | 15.0 | 0.00 | 0.00 | 0.00 | 43 | 1022.7 |
| 20260902132008 | 73 | 310 | 5.0 | 7.0 | 0.00 | 0.00 | 0.00 | 43 | 1022.9 |
| 20260902131508 | 72 | 254 | 3.0 | 8.0 | 0.00 | 0.00 | 0.00 | 43 | 1023.0 |
| 20260902131008 | 73 | 243 | 6.0 | 6.0 | 0.00 | 0.00 | 0.00 | 46 | 1022.9 |
| 20260902130507 | 72 | 256 | 8.0 | 12.0 | 0.00 | 0.00 | 0.00 | 46 | 1023.1 |
| 20260902130008 | 73 | 296 | 7.0 | 8.0 | 0.00 | 0.00 | 0.00 | 45 | 1022.9 |
| 20260902125507 | 73 | 286 | 7.0 | 12.0 | 0.00 | 0.00 | 0.00 | 46 | 1023.3 |
| 20260902125008 | 73 | 283 | 2.0 | 4.0 | 0.00 | 0.00 | 0.00 | 47 | 1022.9 |
| 20260902124507 | 72 | 291 | 7.0 | 12.0 | 0.00 | 0.00 | 0.00 | 46 | 1022.9 |
| 20260902124007 | 72 | 295 | 10.0 | 14.0 | 0.00 | 0.00 | 0.00 | 45 | 1023.1 |
| 20260902123508 | 72 | 231 | 6.0 | 12.0 | 0.00 | 0.00 | 0.00 | 47 | 1023.0 |
| 20260902123009 | 71 | 282 | 10.0 | 13.0 | 0.00 | 0.00 | 0.00 | 47 | 1023.0 |
| 20260902122508 | 71 | 292 | 10.0 | 10.0 | 0.00 | 0.00 | 0.00 | 48 | 1023.1 |
| 20260902122007 | 71 | 290 | 6.0 | 8.0 | 0.00 | 0.00 | 0.00 | 47 | 1023.1 |
| 20260902121507 | 70 | 303 | 7.0 | 9.0 | 0.00 | 0.00 | 0.00 | 49 | 1023.1 |
| 20260902121008 | 71 | 276 | 7.0 | 10.0 | 0.00 | 0.00 | 0.00 | 49 | 1023.0 |
| 20260902120508 | 71 | 280 | 7.0 | 9.0 | 0.00 | 0.00 | 0.00 | 50 | 1022.9 |
| 20260902120008 | 70 | 286 | 6.0 | 8.0 | 0.00 | 0.00 | 0.00 | 49 | 1023.2 |
| 20260902115508 | 71 | 305 | 6.0 | 6.0 | 0.00 | 0.00 | 0.00 | 51 | 1023.1 |
| 20260902115007 | 70 | 280 | 7.0 | 10.0 | 0.00 | 0.00 | 0.00 | 49 | 1023.2 |
| 20260902114507 | 70 | 259 | 4.0 | 4.0 | 0.00 | 0.00 | 0.00 | 52 | 1023.1 |
| 20260902114008 | 70 | 278 | 10.0 | 10.0 | 0.00 | 0.00 | 0.00 | 50 | 1023.2 |
| 20260902113509 | 70 | 293 | 9.0 | 10.0 | 0.00 | 0.00 | 0.00 | 53 | 1023.3 |
| 20260902113010 | 70 | 285 | 8.0 | 9.0 | 0.00 | 0.00 | 0.00 | 54 | 1023.2 |
| 20260902112507 | 69 | 327 | 2.0 | 5.0 | 0.00 | 0.00 | 0.00 | 56 | 1023.4 |
| 20260902112007 | 69 | 331 | 4.0 | 6.0 | 0.00 | 0.00 | 0.00 | 55 | 1023.4 |
| 20260902111507 | 69 | 329 | 7.0 | 8.0 | 0.00 | 0.00 | 0.00 | 57 | 1023.6 |
| 20260902111008 | 69 | 295 | 13.0 | 14.0 | 0.00 | 0.00 | 0.00 | 55 | 1023.4 |
| 20260902110507 | 70 | 311 | 4.0 | 6.0 | 0.00 | 0.00 | 0.00 | 51 | 1023.7 |
| 20260902110008 | 69 | 290 | 11.0 | 14.0 | 0.00 | 0.00 | 0.00 | 53 | 1023.8 |
| 20260902105507 | 69 | 274 | 6.0 | 7.0 | 0.00 | 0.00 | 0.00 | 53 | 1023.7 |
| 20260902105007 | 70 | 269 | 4.0 | 4.0 | 0.00 | 0.00 | 0.00 | 54 | 1023.7 |
| 20260902104507 | 68 | 295 | 4.0 | 8.0 | 0.00 | 0.00 | 0.00 | 53 | 1023.7 |
| 20260902104008 | 69 | 292 | 8.0 | 10.0 | 0.00 | 0.00 | 0.00 | 54 | 1023.7 |
| 20260902103507 | 70 | 329 | 2.0 | 5.0 | 0.00 | 0.00 | 0.00 | 52 | 1023.7 |
| 20260902103008 | 69 | 310 | 4.0 | 4.0 | 0.00 | 0.00 | 0.00 | 54 | 1023.8 |
| 20260902102507 | 68 | 294 | 8.0 | 10.0 | 0.00 | 0.00 | 0.00 | 56 | 1024.1 |
| 20260902102007 | 68 | 280 | 4.0 | 6.0 | 0.00 | 0.00 | 0.00 | 56 | 1023.9 |
| 20260902101508 | 69 | 277 | 7.0 | 9.0 | 0.00 | 0.00 | 0.00 | 56 | 1023.9 |
| 20260902101007 | 69 | 299 | 10.0 | 11.0 | 0.00 | 0.00 | 0.00 | 56 | 1023.9 |
| 20260902100507 | 69 | 287 | 10.0 | 12.0 | 0.00 | 0.00 | 0.00 | 56 | 1024.0 |
| 20260902100008 | 69 | 313 | 2.0 | 3.0 | 0.00 | 0.00 | 0.00 | 60 | 1024.0 |
| 20260902095508 | 68 | 273 | 2.0 | 2.0 | 0.00 | 0.00 | 0.00 | 59 | 1024.0 |
| 20260902095007 | 68 | 269 | 3.0 | 3.0 | 0.00 | 0.00 | 0.00 | 55 | 1023.9 |
| 20260902094507 | 68 | 148 | 2.0 | 2.0 | 0.00 | 0.00 | 0.00 | 58 | 1023.9 |
| 20260902094008 | 69 | 301 | 0.0 | 2.0 | 0.00 | 0.00 | 0.00 | 57 | 1024.0 |
| 20260902093508 | 69 | 251 | 3.0 | 4.0 | 0.00 | 0.00 | 0.00 | 57 | 1024.0 |
| 20260902093008 | 68 | 241 | 6.0 | 6.0 | 0.00 | 0.00 | 0.00 | 59 | 1023.9 |
| 20260902092509 | 67 | 216 | 5.0 | 6.0 | 0.00 | 0.00 | 0.00 | 59 | 1024.1 |
| 20260902092007 | 67 | 266 | 10.0 | 10.0 | 0.00 | 0.00 | 0.00 | 57 | 1024.1 |
| 20260902091508 | 68 | 261 | 8.0 | 8.0 | 0.00 | 0.00 | 0.00 | 59 | 1024.1 |
| 20260902091008 | 67 | 234 | 2.0 | 4.0 | 0.00 | 0.00 | 0.00 | 62 | 1023.7 |
| 20260902090507 | 66 | 243 | 4.0 | 4.0 | 0.00 | 0.00 | 0.00 | 64 | 1023.8 |
| 20260902090008 | 66 | 314 | 2.0 | 2.0 | 0.00 | 0.00 | 0.00 | 65 | 1023.9 |
| 20260902085507 | 66 | 251 | 0.0 | 2.0 | 0.00 | 0.00 | 0.00 | 65 | 1023.9 |
| 20260902085008 | 66 | 305 | 2.0 | 3.0 | 0.00 | 0.00 | 0.00 | 65 | 1023.8 |
| 20260902084507 | 66 | 327 | 0.0 | 1.0 | 0.00 | 0.00 | 0.00 | 65 | 1023.7 |
| 20260902084007 | 65 | 357 | 1.0 | 1.0 | 0.00 | 0.00 | 0.00 | 66 | 1023.8 |
| 20260902083508 | 65 | 327 | 2.0 | 3.0 | 0.00 | 0.00 | 0.00 | 66 | 1023.8 |
| 20260902083008 | 65 | 293 | 2.0 | 2.0 | 0.00 | 0.00 | 0.00 | 67 | 1024.0 |
| 20260902082507 | 65 | 335 | 1.0 | 1.0 | 0.00 | 0.00 | 0.00 | 67 | 1023.8 |
| 20260902082008 | 65 | 359 | 2.0 | 3.0 | 0.00 | 0.00 | 0.00 | 67 | 1023.6 |
| 20260902081508 | 64 | 287 | 1.0 | 2.0 | 0.00 | 0.00 | 0.00 | 69 | 1023.9 |
| 20260902081008 | 63 | 296 | 4.0 | 4.0 | 0.00 | 0.00 | 0.00 | 70 | 1023.7 |
| 20260902080507 | 63 | 283 | 3.0 | 4.0 | 0.00 | 0.00 | 0.00 | 69 | 1023.9 |
| 20260902080008 | 62 | 248 | 2.0 | 3.0 | 0.00 | 0.00 | 0.00 | 70 | 1023.8 |
| 20260902075509 | 62 | 232 | 3.0 | 5.0 | 0.00 | 0.00 | 0.00 | 71 | 1023.8 |
| 20260902075008 | 62 | 253 | 4.0 | 5.0 | 0.00 | 0.00 | 0.00 | 70 | 1023.8 |
| 20260902074508 | 62 | 252 | 4.0 | 5.0 | 0.00 | 0.00 | 0.00 | 70 | 1023.7 |
| 20260902074010 | 61 | 253 | 5.0 | 6.0 | 0.00 | 0.00 | 0.00 | 71 | 1023.6 |
| 20260902073508 | 61 | 238 | 4.0 | 5.0 | 0.00 | 0.00 | 0.00 | 71 | 1023.7 |
| 20260902073008 | 61 | 268 | 3.0 | 4.0 | 0.00 | 0.00 | 0.00 | 70 | 1023.8 |
| 20260902072508 | 60 | 256 | 5.0 | 5.0 | 0.00 | 0.00 | 0.00 | 72 | 1023.6 |
| 20260902072008 | 60 | 245 | 6.0 | 7.0 | 0.00 | 0.00 | 0.00 | 73 | 1023.4 |
| 20260902071508 | 60 | 249 | 5.0 | 7.0 | 0.00 | 0.00 | 0.00 | 73 | 1023.6 |
| 20260902071008 | 59 | 255 | 8.0 | 11.0 | 0.00 | 0.00 | 0.00 | 74 | 1023.7 |
| 20260902070508 | 59 | 237 | 7.0 | 8.0 | 0.00 | 0.00 | 0.00 | 73 | 1023.7 |
| 20260902070008 | 59 | 259 | 8.0 | 11.0 | 0.00 | 0.00 | 0.00 | 72 | 1023.6 |
| 20260902065508 | 59 | 255 | 7.0 | 9.0 | 0.00 | 0.00 | 0.00 | 74 | 1023.5 |
| 20260902065008 | 59 | 251 | 7.0 | 8.0 | 0.00 | 0.00 | 0.00 | 73 | 1023.5 |
| 20260902064508 | 59 | 253 | 7.0 | 8.0 | 0.00 | 0.00 | 0.00 | 74 | 1023.5 |
| 20260902064007 | 59 | 250 | 4.0 | 5.0 | 0.00 | 0.00 | 0.00 | 74 | 1023.2 |
| 20260902063508 | 59 | 235 | 6.0 | 8.0 | 0.00 | 0.00 | 0.00 | 75 | 1023.5 |
| 20260902063007 | 58 | 249 | 7.0 | 10.0 | 0.00 | 0.00 | 0.00 | 75 | 1023.6 |
| 20260902062508 | 58 | 231 | 8.0 | 8.0 | 0.00 | 0.00 | 0.00 | 77 | 1023.4 |
| 20260902062007 | 58 | 251 | 9.0 | 9.0 | 0.00 | 0.00 | 0.00 | 76 | 1023.3 |
| 20260902061507 | 58 | 247 | 8.0 | 8.0 | 0.00 | 0.00 | 0.00 | 76 | 1023.2 |
| 20260902061006 | 58 | 256 | 10.0 | 10.0 | 0.00 | 0.00 | 0.00 | 75 | 1023.3 |
| 20260902060508 | 58 | 241 | 5.0 | 7.0 | 0.00 | 0.00 | 0.00 | 75 | 1023.3 |
| 20260902060008 | 58 | 249 | 8.0 | 9.0 | 0.00 | 0.00 | 0.00 | 74 | 1023.4 |
| 20260902055508 | 58 | 244 | 8.0 | 9.0 | 0.00 | 0.00 | 0.00 | 74 | 1023.3 |
| 20260902055006 | 57 | 249 | 9.0 | 10.0 | 0.00 | 0.00 | 0.00 | 75 | 1023.5 |
| 20260902054508 | 57 | 230 | 8.0 | 9.0 | 0.00 | 0.00 | 0.00 | 77 | 1023.3 |
| 20260902054008 | 56 | 244 | 8.0 | 8.0 | 0.00 | 0.00 | 0.00 | 79 | 1023.2 |
| 20260902053508 | 56 | 236 | 8.0 | 8.0 | 0.00 | 0.00 | 0.00 | 79 | 1023.2 |
| 20260902053008 | 56 | 233 | 9.0 | 9.0 | 0.00 | 0.00 | 0.00 | 78 | 1023.1 |
| 20260902052507 | 57 | 230 | 9.0 | 10.0 | 0.00 | 0.00 | 0.00 | 79 | 1023.1 |
| 20260902052007 | 57 | 228 | 7.0 | 9.0 | 0.00 | 0.00 | 0.00 | 78 | 1023.0 |
| 20260902051508 | 57 | 216 | 9.0 | 10.0 | 0.00 | 0.00 | 0.00 | 77 | 1022.8 |
| 20260902051007 | 57 | 220 | 8.0 | 8.0 | 0.00 | 0.00 | 0.00 | 77 | 1023.1 |
| 20260902050507 | 57 | 221 | 8.0 | 10.0 | 0.00 | 0.00 | 0.00 | 76 | 1023.0 |
| 20260902050009 | 57 | 226 | 8.0 | 8.0 | 0.00 | 0.00 | 0.00 | 76 | 1022.6 |
| 20260902045507 | 57 | 240 | 9.0 | 10.0 | 0.00 | 0.00 | 0.00 | 77 | 1022.8 |
| 20260902045007 | 57 | 236 | 9.0 | 10.0 | 0.00 | 0.00 | 0.00 | 76 | 1022.7 |
| 20260902044508 | 57 | 213 | 7.0 | 9.0 | 0.00 | 0.00 | 0.00 | 77 | 1022.6 |
| 20260902044008 | 57 | 205 | 9.0 | 10.0 | 0.00 | 0.00 | 0.00 | 78 | 1022.5 |
| 20260902043507 | 57 | 210 | 7.0 | 8.0 | 0.00 | 0.00 | 0.00 | 77 | 1022.6 |
| 20260902043008 | 57 | 210 | 7.0 | 8.0 | 0.00 | 0.00 | 0.00 | 77 | 1022.6 |
| 20260902042508 | 56 | 209 | 6.0 | 8.0 | 0.00 | 0.00 | 0.00 | 78 | 1022.6 |
| 20260902042007 | 56 | 223 | 10.0 | 10.0 | 0.00 | 0.00 | 0.00 | 77 | 1022.3 |
| 20260902041507 | 56 | 224 | 7.0 | 11.0 | 0.00 | 0.00 | 0.00 | 78 | 1022.4 |
| 20260902041007 | 56 | 225 | 10.0 | 13.0 | 0.00 | 0.00 | 0.00 | 78 | 1022.6 |
| 20260902040508 | 57 | 233 | 9.0 | 12.0 | 0.00 | 0.00 | 0.00 | 76 | 1022.6 |
| 20260902040007 | 57 | 231 | 11.0 | 12.0 | 0.00 | 0.00 | 0.00 | 77 | 1022.4 |
| 20260902035506 | 57 | 229 | 10.0 | 11.0 | 0.00 | 0.00 | 0.00 | 77 | 1022.5 |
| 20260902035007 | 57 | 233 | 10.0 | 11.0 | 0.00 | 0.00 | 0.00 | 75 | 1022.6 |
| 20260902034508 | 57 | 241 | 7.0 | 9.0 | 0.00 | 0.00 | 0.00 | 75 | 1022.7 |
| 20260902034008 | 57 | 242 | 9.0 | 11.0 | 0.00 | 0.00 | 0.00 | 76 | 1022.6 |
| 20260902033507 | 58 | 245 | 9.0 | 11.0 | 0.00 | 0.00 | 0.00 | 73 | 1022.6 |
| 20260902033008 | 57 | 238 | 11.0 | 12.0 | 0.00 | 0.00 | 0.00 | 75 | 1022.7 |
| 20260902032508 | 56 | 236 | 12.0 | 13.0 | 0.00 | 0.00 | 0.00 | 78 | 1022.6 |
| 20260902032007 | 56 | 239 | 10.0 | 12.0 | 0.00 | 0.00 | 0.00 | 78 | 1022.9 |
| 20260902031508 | 56 | 242 | 12.0 | 13.0 | 0.00 | 0.00 | 0.00 | 77 | 1022.7 |
| 20260902031008 | 57 | 250 | 11.0 | 12.0 | 0.00 | 0.00 | 0.00 | 75 | 1022.6 |
| 20260902030507 | 57 | 245 | 12.0 | 12.0 | 0.00 | 0.00 | 0.00 | 76 | 1022.8 |
| 20260902030008 | 57 | 256 | 14.0 | 16.0 | 0.00 | 0.00 | 0.00 | 75 | 1022.9 |
| 20260902025507 | 58 | 253 | 13.0 | 14.0 | 0.00 | 0.00 | 0.00 | 74 | 1022.7 |
| 20260902025008 | 57 | 248 | 13.0 | 14.0 | 0.00 | 0.00 | 0.00 | 75 | 1022.8 |
| 20260902024507 | 57 | 243 | 11.0 | 12.0 | 0.00 | 0.00 | 0.00 | 75 | 1022.8 |
| 20260902024008 | 57 | 245 | 13.0 | 14.0 | 0.00 | 0.00 | 0.00 | 75 | 1022.8 |
| 20260902023507 | 57 | 245 | 13.0 | 15.0 | 0.00 | 0.00 | 0.00 | 75 | 1022.6 |
| 20260902023008 | 57 | 243 | 14.0 | 15.0 | 0.00 | 0.00 | 0.00 | 75 | 1022.8 |
| 20260902022507 | 58 | 242 | 12.0 | 13.0 | 0.00 | 0.00 | 0.00 | 74 | 1022.8 |
| 20260902022007 | 57 | 242 | 10.0 | 11.0 | 0.00 | 0.00 | 0.00 | 75 | 1023.0 |
| 20260902021507 | 57 | 238 | 12.0 | 12.0 | 0.00 | 0.00 | 0.00 | 75 | 1022.9 |
| 20260902021007 | 57 | 244 | 11.0 | 12.0 | 0.00 | 0.00 | 0.00 | 76 | 1022.8 |
| 20260902020507 | 58 | 247 | 12.0 | 12.0 | 0.00 | 0.00 | 0.00 | 74 | 1022.8 |
| 20260902020007 | 58 | 239 | 10.0 | 11.0 | 0.00 | 0.00 | 0.00 | 73 | 1022.8 |
| 20260902015508 | 58 | 246 | 12.0 | 13.0 | 0.00 | 0.00 | 0.00 | 73 | 1022.8 |
| 20260902015007 | 57 | 249 | 10.0 | 11.0 | 0.00 | 0.00 | 0.00 | 74 | 1022.6 |
| 20260902014508 | 58 | 248 | 11.0 | 12.0 | 0.00 | 0.00 | 0.00 | 72 | 1022.8 |
| 20260902014007 | 59 | 256 | 10.0 | 10.0 | 0.00 | 0.00 | 0.00 | 71 | 1022.8 |
| 20260902013507 | 59 | 243 | 10.0 | 13.0 | 0.00 | 0.00 | 0.00 | 70 | 1022.7 |
| 20260902013008 | 59 | 233 | 11.0 | 13.0 | 0.00 | 0.00 | 0.00 | 70 | 1022.9 |
| 20260902012507 | 59 | 234 | 12.0 | 15.0 | 0.00 | 0.00 | 0.00 | 70 | 1022.6 |
| 20260902012008 | 59 | 233 | 11.0 | 12.0 | 0.00 | 0.00 | 0.00 | 70 | 1022.6 |
| 20260902011508 | 59 | 222 | 10.0 | 13.0 | 0.00 | 0.00 | 0.00 | 69 | 1022.4 |
| 20260902011007 | 59 | 220 | 10.0 | 12.0 | 0.00 | 0.00 | 0.00 | 70 | 1022.8 |
| 20260902010508 | 59 | 230 | 11.0 | 12.0 | 0.00 | 0.00 | 0.00 | 69 | 1022.5 |
| 20260902010008 | 59 | 230 | 11.0 | 12.0 | 0.00 | 0.00 | 0.00 | 69 | 1022.7 |
| 20260902005507 | 60 | 231 | 12.0 | 14.0 | 0.00 | 0.00 | 0.00 | 68 | 1022.6 |
| 20260902005008 | 60 | 230 | 12.0 | 13.0 | 0.00 | 0.00 | 0.00 | 68 | 1022.6 |
| 20260902004507 | 59 | 239 | 10.0 | 13.0 | 0.00 | 0.00 | 0.00 | 69 | 1022.7 |
| 20260902004008 | 59 | 228 | 12.0 | 13.0 | 0.00 | 0.00 | 0.00 | 69 | 1022.6 |
| 20260902003507 | 59 | 239 | 13.0 | 13.0 | 0.00 | 0.00 | 0.00 | 70 | 1022.7 |
| 20260902003008 | 60 | 246 | 12.0 | 13.0 | 0.00 | 0.00 | 0.00 | 68 | 1022.7 |
| 20260902002507 | 60 | 244 | 11.0 | 12.0 | 0.00 | 0.00 | 0.00 | 68 | 1022.7 |
| 20260902002007 | 60 | 241 | 12.0 | 13.0 | 0.00 | 0.00 | 0.00 | 68 | 1022.6 |
| 20260902001508 | 61 | 242 | 12.0 | 13.0 | 0.00 | 0.00 | 0.00 | 65 | 1022.5 |
| 20260902001007 | 61 | 252 | 11.0 | 12.0 | 0.00 | 0.00 | 0.00 | 66 | 1022.7 |
| 20260902000508 | 60 | 249 | 12.0 | 13.0 | 0.00 | 0.00 | 0.00 | 68 | 1022.6 |
| 20260902000008 | 60 | 248 | 11.0 | 14.0 | 0.00 | 0.00 | 0.00 | 67 | 1022.7 |
| 20260901235508 | 60 | 249 | 11.0 | 13.0 | 0.00 | 0.00 | 0.00 | 68 | 1022.6 |
| 20260901235008 | 60 | 251 | 13.0 | 13.0 | 0.00 | 0.00 | 0.00 | 67 | 1022.8 |
| 20260901234507 | 60 | 247 | 10.0 | 11.0 | 0.00 | 0.00 | 0.00 | 66 | 1022.6 |
| 20260901234009 | 61 | 247 | 10.0 | 11.0 | 0.00 | 0.00 | 0.00 | 66 | 1023.0 |
| 20260901233508 | 61 | 244 | 9.0 | 10.0 | 0.00 | 0.00 | 0.00 | 65 | 1022.8 |
| 20260901233007 | 61 | 227 | 8.0 | 10.0 | 0.00 | 0.00 | 0.00 | 64 | 1022.9 |
| 20260901232508 | 61 | 241 | 10.0 | 11.0 | 0.00 | 0.00 | 0.00 | 63 | 1022.6 |
| 20260901232007 | 61 | 237 | 10.0 | 11.0 | 0.00 | 0.00 | 0.00 | 65 | 1022.8 |
| 20260901231507 | 62 | 241 | 11.0 | 11.0 | 0.00 | 0.00 | 0.00 | 63 | 1022.8 |
| 20260901231008 | 61 | 238 | 11.0 | 12.0 | 0.00 | 0.00 | 0.00 | 64 | 1022.9 |